[[{"header":{"parameterUnit":"m.s-1","parameterCategory":1,"la1":30.2991,"la2":30.254,"lo1":-89.0895,"lo2":-89.0444,"dy":0.0017,"dx":0.0017,"nx":28,"ny":28,"refTime":"2024-03-25T09:00:00:Z","depth":0,"parameterNumber":2,"parameterNumberName":"U-component_of_WINDS"},"data":[0,0,0,0,0,0,0,0,0,0,0,0,0,0,0,0,0,0,0,0,0,0,0,0,0,0,0,0,0,0,0,0,0,0,0,0,0,0,0,0,0,0,0,0,0,0,0,0,0,0,0,0,0,0,0,0,0,0,0.2646,0.2646,0,0.2661,0.2661,0.2661,0.2647,0.2647,0.2646,0.2646,0.2662,0.2663,0.2664,0,0,0,0,0,0,0,0,0,0,0,0,0,0.2608,0.2608,0.2646,0.2646,0.2646,0.2661,0.2661,0.2661,0.2647,0.2647,0.2646,0.2645,0.2662,0.2663,0.2664,0,0,0,0,0,0,0,0,0,0,0,0,0,0.2624,0.2609,0.2646,0.2641,0.2641,0.2661,0.2661,0.2661,0.2648,0.2647,0.2646,0.2645,0.2662,0.2663,0.2665,0.2691,0,0,0.2669,0.267,0,0,0,0,0,0,0,0,0.2623,0.2625,0.2642,0.2641,0.2641,0.2651,0.2654,0.2671,0.2648,0.2645,0.2646,0.2645,0.266,0.2661,0.2666,0.2691,0.2692,0.2669,0.267,0.2671,0.2671,0,0,0,0,0,0,0,0.2622,0.2624,0.2652,0.2642,0.2642,0.2639,0.264,0.2657,0.2657,0.2645,0.2644,0.2646,0.2659,0.2664,0.2666,0.2692,0.2669,0.267,0.2671,0.2672,0.2742,0.2742,0,0,0,0,0,0,0.2621,0.2623,0.2651,0.2652,0.263,0.264,0.2642,0.2649,0.2657,0.2657,0.2647,0.2645,0.2662,0.2664,0.2667,0.2699,0.2671,0.2672,0.2673,0.2741,0.2742,0.2743,0,0,0,0,0,0,0.262,0.2623,0.2651,0.2638,0.2641,0.2642,0.265,0.265,0.2655,0.2658,0.2658,0.2652,0.2662,0.2665,0.2685,0.2699,0.2673,0.2674,0.2739,0.2741,0.2742,0.2762,0,0,0,0,0,0,0.2619,0.2623,0.2632,0.2638,0.2642,0.2668,0.2651,0.2651,0.2657,0.2656,0.2663,0.2663,0.2661,0.2683,0.2686,0.27,0.2675,0.2738,0.274,0.2742,0.276,0.2764,0.2767,0,0,0,0,0,0.2618,0.2637,0.2633,0.2636,0.2653,0.2669,0.2671,0.2668,0.2658,0.2668,0.267,0.2663,0.2697,0.2685,0.2689,0.2704,0.2737,0.274,0.2742,0.2758,0.2763,0.2767,0,0,0,0,0,0,0.2634,0.2638,0.2633,0.2655,0.2662,0.2667,0.2679,0.2673,0.2683,0.2681,0.2678,0.2679,0.2701,0.2704,0.2691,0.273,0.2716,0.2719,0.2727,0.2731,0.2735,0.2734,0.2676,0,0,0,0,0,0.264,0.2651,0.2655,0.2674,0.2678,0.2678,0.2684,0.2682,0.2689,0.2692,0.2695,0.2703,0.2715,0.2723,0.2735,0.2761,0.2763,0.2773,0.2776,0.2779,0.2782,0.2797,0.2802,0.275,0.275,0.275,0,0,0.2652,0.2656,0.2664,0.2677,0.2682,0.2696,0.268,0.2694,0.2705,0.2694,0.2713,0.2717,0.2725,0.2748,0.2759,0.2752,0.2797,0.2782,0.2784,0.2786,0.28,0.2805,0.2809,0.2752,0.2751,0.2751,0,0,0.2682,0.2686,0.2703,0.2708,0.2716,0.2716,0.272,0.2726,0.2728,0.2747,0.274,0.2752,0.2773,0.278,0.2786,0.282,0.2814,0.2824,0.2843,0.2858,0.2862,0.2865,0.2879,0.2883,0.2827,0.2827,0.2827,0,0.2697,0.2716,0.2712,0.2728,0.2734,0.2725,0.2743,0.2748,0.276,0.2765,0.2757,0.2784,0.2789,0.2814,0.2823,0.2828,0.2833,0.2823,0.2861,0.2865,0.2868,0.2881,0.2886,0.2828,0.2828,0.2828,0.2828,0,0.2735,0.2748,0.2761,0.2772,0.278,0.2797,0.2796,0.2805,0.2802,0.2803,0.2824,0.283,0.2843,0.2849,0.2846,0.2875,0.287,0.2862,0.2847,0.2875,0.2886,0.2891,0.283,0.2829,0.2829,0.2829,0,0,0.2775,0.2784,0.2789,0.2794,0.2803,0.2813,0.283,0.2843,0.2851,0.2859,0.2874,0.2893,0.2885,0.2892,0.289,0.2903,0.2931,0.2893,0.2894,0.2901,0.2965,0.2971,0.2977,0.2927,0.2928,0.2929,0.2964,0,0.2806,0.2834,0.2832,0.2859,0.2872,0.2864,0.2879,0.2886,0.2888,0.29,0.2902,0.2916,0.2905,0.2909,0.2922,0.2925,0.2944,0.2923,0.2942,0.2943,0.2941,0.2983,0.299,0.3023,0.2969,0.297,0.297,0,0.2845,0.2855,0.2884,0.2891,0.2897,0.291,0.2922,0.2933,0.2942,0.2942,0.2951,0.2947,0.2965,0.295,0.2975,0.2961,0.2969,0.2972,0.2973,0.2975,0.2958,0.2987,0.3033,0.3038,0.2977,0.2977,0.2976,0,0.2873,0.2893,0.2913,0.2918,0.2927,0.2937,0.2941,0.2948,0.2957,0.2968,0.2973,0.2986,0.2993,0.3004,0.3004,0.2993,0.3031,0.3015,0.3033,0.3033,0.3041,0.3041,0.309,0.3045,0.3045,0.3045,0.3045,0,0.2908,0.2926,0.2926,0.2938,0.2959,0.2956,0.2977,0.298,0.2987,0.3001,0.2995,0.3008,0.3007,0.3021,0.3021,0.3043,0.3046,0.3048,0.3048,0.3049,0.3049,0.3054,0.3052,0.3046,0.3046,0.3046,0.3045,0,0.2943,0.2943,0.2964,0.2971,0.2973,0.2988,0.2994,0.3007,0.3008,0.3026,0.303,0.3033,0.3049,0.305,0.3069,0.3069,0.3096,0.3093,0.3093,0.3092,0.311,0.3109,0.3165,0.3173,0.3123,0.3123,0.3123,0,0.2965,0.2979,0.2987,0.2996,0.3001,0.3014,0.3023,0.3021,0.3031,0.3042,0.3053,0.3069,0.3081,0.3107,0.3111,0.3126,0.3124,0.3143,0.3126,0.3127,0.3125,0.3125,0.3127,0.3146,0.3147,0.3147,0.3147,0,0.3006,0.3006,0.3018,0.303,0.304,0.305,0.3059,0.3067,0.3067,0.3078,0.3094,0.3103,0.3122,0.3138,0.3153,0.3158,0.3153,0.3153,0.3158,0.3159,0.3159,0.316,0.3102,0.3151,0.3151,0.3151,0.3151,0.315,0.3036,0.3048,0.3056,0.307,0.3077,0.3086,0.3098,0.3102,0.3115,0.313,0.3128,0.3147,0.3156,0.3175,0.3182,0.3197,0.319,0.3197,0.3199,0.3201,0.3204,0.3156,0.3199,0.3199,0.3199,0.3199,0.3199,0,0.3077,0.3082,0.3095,0.3108,0.3119,0.3113,0.3123,0.3134,0.3149,0.3159,0.3171,0.319,0.3206,0.3212,0.3227,0.3238,0.3237,0.3242,0.3242,0.3244,0.3208,0.3202,0.3244,0.3244,0.3244,0.3244,0.3244,0.3244,0.31,0.312,0.3121,0.3146,0.3151,0.3168,0.3175,0.3184,0.3191,0.3213,0.3225,0.3229,0.3237,0.3254,0.3268,0.327,0.3276,0.3283,0.3284,0.325,0.3246,0.3242,0.3237,0.3284,0.3284,0.3319,0.3319,0.3319]},{"header":{"parameterUnit":"m.s-1","parameterCategory":1,"la1":30.2991,"la2":30.254,"lo1":-89.0895,"lo2":-89.0444,"dy":0.0017,"dx":0.0017,"nx":28,"ny":28,"refTime":"2024-03-25T09:00:00:Z","depth":0,"parameterNumber":3,"parameterNumberName":"V-component_of_WINDS"},"data":[0,0,0,0,0,0,0,0,0,0,0,0,0,0,0,0,0,0,0,0,0,0,0,0,0,0,0,0,0,0,0,0,0,0,0,0,0,0,0,0,0,0,0,0,0,0,0,0,0,0,0,0,0,0,0,0,0,0,-1.7657,-1.7657,0,-1.7723,-1.7724,-1.7725,-1.7745,-1.7744,-1.7744,-1.7744,-1.781,-1.7812,-1.7814,0,0,0,0,0,0,0,0,0,0,0,0,0,-1.7546,-1.7548,-1.7656,-1.7657,-1.7658,-1.7723,-1.7724,-1.7725,-1.7745,-1.7744,-1.7744,-1.7743,-1.781,-1.7812,-1.7815,0,0,0,0,0,0,0,0,0,0,0,0,0,-1.7602,-1.7549,-1.7656,-1.7676,-1.7678,-1.7723,-1.7724,-1.7725,-1.7745,-1.7744,-1.7744,-1.7743,-1.7809,-1.7812,-1.7815,-1.7845,0,0,-1.7825,-1.7826,0,0,0,0,0,0,0,0,-1.7599,-1.7606,-1.7672,-1.7675,-1.7677,-1.7725,-1.771,-1.7765,-1.7745,-1.7719,-1.7744,-1.7743,-1.7782,-1.7788,-1.7801,-1.7848,-1.7851,-1.7825,-1.7827,-1.7828,-1.7829,0,0,0,0,0,0,0,-1.7595,-1.7603,-1.7683,-1.7673,-1.7676,-1.7681,-1.7689,-1.772,-1.7753,-1.7722,-1.7723,-1.7731,-1.7784,-1.7798,-1.7803,-1.7852,-1.7825,-1.7828,-1.7829,-1.7831,-1.7928,-1.7929,0,0,0,0,0,0,-1.7588,-1.76,-1.7681,-1.7685,-1.7636,-1.7684,-1.7692,-1.771,-1.7753,-1.7759,-1.7731,-1.7732,-1.7793,-1.7799,-1.7805,-1.7844,-1.7828,-1.7831,-1.7833,-1.7927,-1.7928,-1.7929,0,0,0,0,0,0,-1.7585,-1.7595,-1.7678,-1.7643,-1.7654,-1.7686,-1.7707,-1.7712,-1.7726,-1.776,-1.7766,-1.774,-1.7793,-1.7801,-1.7835,-1.7847,-1.7832,-1.7835,-1.7926,-1.7927,-1.7928,-1.7921,0,0,0,0,0,0,-1.7582,-1.7594,-1.7605,-1.7643,-1.7656,-1.7707,-1.7707,-1.7714,-1.7732,-1.7733,-1.777,-1.7775,-1.7793,-1.783,-1.7838,-1.7851,-1.7838,-1.7925,-1.7927,-1.7928,-1.792,-1.7922,-1.7923,0,0,0,0,0,-1.7578,-1.7599,-1.7605,-1.7615,-1.767,-1.7707,-1.7715,-1.7735,-1.7733,-1.7745,-1.7767,-1.7774,-1.7844,-1.7834,-1.7843,-1.7856,-1.7925,-1.7926,-1.7928,-1.792,-1.7921,-1.7923,0,0,0,0,0,0,-1.7561,-1.7605,-1.7612,-1.7646,-1.7673,-1.7711,-1.7726,-1.7736,-1.7763,-1.7763,-1.7787,-1.7795,-1.7828,-1.7846,-1.7833,-1.7888,-1.7885,-1.7888,-1.7875,-1.7877,-1.7878,-1.7874,-1.784,0,0,0,0,0,-1.7561,-1.7588,-1.7625,-1.7651,-1.7665,-1.7693,-1.771,-1.7724,-1.7752,-1.7763,-1.7788,-1.7815,-1.7843,-1.7861,-1.7889,-1.7923,-1.7932,-1.7937,-1.7938,-1.7939,-1.7942,-1.7963,-1.7966,-1.7934,-1.7934,-1.7934,0,0,-1.7562,-1.7589,-1.7604,-1.7649,-1.7671,-1.7698,-1.7702,-1.773,-1.7751,-1.7767,-1.7802,-1.7821,-1.7853,-1.7888,-1.7904,-1.7903,-1.7953,-1.7941,-1.7941,-1.7944,-1.7965,-1.7968,-1.797,-1.7935,-1.7935,-1.7935,0,0,-1.7578,-1.7601,-1.7626,-1.7649,-1.7684,-1.7703,-1.7709,-1.7746,-1.7759,-1.7795,-1.7808,-1.7833,-1.7881,-1.7903,-1.7921,-1.7948,-1.7956,-1.7956,-1.7963,-1.7983,-1.7985,-1.7988,-1.7998,-1.8002,-1.7959,-1.7959,-1.7959,0,-1.7574,-1.7616,-1.7638,-1.7667,-1.7686,-1.7704,-1.773,-1.7751,-1.7793,-1.7806,-1.7804,-1.7867,-1.7889,-1.793,-1.7937,-1.7951,-1.7959,-1.7952,-1.7983,-1.7986,-1.7988,-1.7999,-1.8003,-1.7959,-1.7959,-1.7959,-1.7959,0,-1.7611,-1.764,-1.7656,-1.7697,-1.7719,-1.7746,-1.7773,-1.7792,-1.7804,-1.7824,-1.786,-1.7888,-1.7923,-1.7934,-1.7945,-1.7977,-1.7976,-1.7979,-1.7976,-1.7991,-1.8001,-1.8005,-1.7959,-1.7959,-1.7959,-1.7959,0,0,-1.7616,-1.7671,-1.7677,-1.7696,-1.7736,-1.7759,-1.7788,-1.7823,-1.7839,-1.7868,-1.7893,-1.7934,-1.7937,-1.7958,-1.7972,-1.799,-1.8011,-1.7991,-1.7992,-1.7994,-1.805,-1.8048,-1.8052,-1.8017,-1.8018,-1.8019,-1.8047,0,-1.7638,-1.769,-1.7712,-1.7754,-1.7782,-1.78,-1.7825,-1.7852,-1.7872,-1.7898,-1.7919,-1.7949,-1.795,-1.7963,-1.7982,-1.8005,-1.8023,-1.8003,-1.8041,-1.8042,-1.8033,-1.8057,-1.8055,-1.808,-1.8051,-1.8052,-1.8052,0,-1.7669,-1.7699,-1.7744,-1.7783,-1.7796,-1.7818,-1.7853,-1.7877,-1.791,-1.7923,-1.7947,-1.7961,-1.7992,-1.7987,-1.8031,-1.8017,-1.8034,-1.8048,-1.805,-1.8054,-1.8048,-1.8063,-1.8089,-1.8093,-1.8059,-1.8058,-1.8058,0,-1.767,-1.7721,-1.7756,-1.7772,-1.7818,-1.7833,-1.7853,-1.7885,-1.7905,-1.7935,-1.7949,-1.7982,-1.8,-1.8026,-1.8049,-1.8043,-1.8091,-1.8088,-1.8103,-1.8103,-1.8112,-1.8111,-1.8142,-1.8122,-1.8122,-1.8122,-1.8122,0,-1.7691,-1.7719,-1.7757,-1.7778,-1.781,-1.7835,-1.7866,-1.7886,-1.7915,-1.7941,-1.7958,-1.7982,-1.8011,-1.8038,-1.8057,-1.8091,-1.8099,-1.8111,-1.8115,-1.8109,-1.8108,-1.8121,-1.812,-1.8123,-1.8123,-1.8123,-1.8123,0,-1.7697,-1.7724,-1.7763,-1.7804,-1.7815,-1.7836,-1.7871,-1.7893,-1.7914,-1.7947,-1.7956,-1.7988,-1.8022,-1.8048,-1.8091,-1.8104,-1.814,-1.8145,-1.813,-1.8132,-1.8147,-1.8145,-1.8187,-1.8194,-1.8169,-1.8169,-1.8169,0,-1.771,-1.7731,-1.7775,-1.7794,-1.7814,-1.7844,-1.7866,-1.7892,-1.7913,-1.7953,-1.797,-1.8005,-1.8035,-1.8088,-1.8115,-1.8149,-1.8155,-1.8167,-1.816,-1.8154,-1.8156,-1.8155,-1.8158,-1.8168,-1.8168,-1.8168,-1.8168,0,-1.7729,-1.7742,-1.7772,-1.7807,-1.7833,-1.7862,-1.7891,-1.7905,-1.7937,-1.796,-1.7996,-1.8019,-1.8064,-1.8099,-1.8136,-1.8157,-1.8168,-1.8171,-1.8176,-1.8171,-1.8161,-1.8168,-1.8133,-1.817,-1.8169,-1.8169,-1.8169,-1.8169,-1.7739,-1.776,-1.7795,-1.7828,-1.7853,-1.7881,-1.7904,-1.7928,-1.7958,-1.7998,-1.8012,-1.8049,-1.8082,-1.8133,-1.8154,-1.8183,-1.8183,-1.8191,-1.8193,-1.8195,-1.8195,-1.8157,-1.819,-1.819,-1.819,-1.819,-1.819,0,-1.776,-1.7784,-1.7814,-1.7856,-1.7883,-1.7892,-1.7926,-1.7947,-1.798,-1.801,-1.804,-1.8081,-1.8116,-1.8147,-1.8183,-1.8201,-1.8207,-1.8209,-1.8208,-1.8213,-1.8192,-1.8184,-1.8204,-1.8204,-1.8204,-1.8204,-1.8204,-1.8204,-1.7774,-1.781,-1.7827,-1.7877,-1.7901,-1.7937,-1.7956,-1.7982,-1.8006,-1.8052,-1.8082,-1.8102,-1.8133,-1.8172,-1.8205,-1.8213,-1.8226,-1.8227,-1.8237,-1.8216,-1.8214,-1.8213,-1.8206,-1.8229,-1.8229,-1.8256,-1.8256,-1.8256]}]]